Regional Weather Roundup
Issued by NWS Raleigh/Durham, NC

Home | Current Version | Previous Version | Text Only | Print | Product List | Glossary On
Versions: 1 2 3 4 5 6 7 8 9 10 11 12 13 14 15 16 17 18 19 20 21 22 23 24 25 26 27 28 29 30 31 32 33 34 35 36 37 38 39 40 41 42 43 44 45 46 47 48 49 50
000
ASUS42 KRAH 310910
RWRRAH
NORTH CAROLINA WEATHER ROUNDUP
NATIONAL WEATHER SERVICE RALEIGH NC
500 AM EDT TUE MAR 31 2015

NOTE: "FAIR" INDICATES FEW OR NO CLOUDS BELOW 12,000 FEET WITH NO
SIGNIFICANT WEATHER AND/OR OBSTRUCTIONS TO VISIBILITY.

NCZ001-053-055-056-065-067-311000-
WESTERN NORTH CAROLINA

CITY           SKY/WX    TMP DP  RH WIND       PRES   REMARKS
ASHEVILLE      FAIR      36  31  82 CALM      30.04F
JEFFERSON      CLEAR     43  20  39 CALM      29.99S
MORGANTON      CLEAR     35  31  85 CALM      30.06S
HICKORY        CLEAR     50  27  40 CALM      30.01
RUTHERFORDTON  FAIR      44  30  58 W3        30.02F
MOUNT AIRY     PTCLDY    43  29  58 CALM      30.03R
BOONE          CLEAR     42  25  51 W10G17    30.00F
$$

NCZ021-022-025-041-071-084-088-311000-
CENTRAL NORTH CAROLINA

CITY           SKY/WX    TMP DP  RH WIND       PRES   REMARKS
CHARLOTTE      CLEAR     43  32  65 W3        30.03S
GREENSBORO     PTCLDY    49  26  41 NW3       30.01S
WINSTON-SALEM  PTCLDY    46  28  49 CALM      30.02F
RALEIGH-DURHAM PTCLDY    39  32  76 CALM      30.02S
FORT BRAGG     CLEAR     40  39  95 CALM      30.01S
FAYETTEVILLE   CLEAR     43  40  89 CALM      30.02S
BURLINGTON     PTCLDY    39  31  72 W5        30.01S
LAURINBURG     CLEAR     38  36  92 CALM      30.03S
$$

NCZ011-015-027-028-043-044-047-080-103-311000-
NORTHEASTERN NORTH CAROLINA

CITY           SKY/WX    TMP DP  RH WIND       PRES   REMARKS
ROCKY MT-WILSO CLEAR     38  36  92 CALM      30.02S
GREENVILLE     FOG       37  37 100 CALM      30.03F VSB 1/2
WASHINGTON     FOG       40  39  98 CALM      30.02S VSB 1/2
ELIZABETH CITY MOCLDY    39  34  82 W3        29.99S
MANTEO         MOCLDY    41  39  92 N3        30.00R
CAPE HATTERAS  MOCLDY    49  45  86 W5        30.00S
$$

NCZ078-087-090-091-093-098-101-311000-
SOUTHEASTERN NORTH CAROLINA

CITY           SKY/WX    TMP DP  RH WIND       PRES   REMARKS
LUMBERTON        N/A     43  41  93 CALM      30.01S FOG
GOLDSBORO      CLEAR     40  40 100 CALM      30.00S
KINSTON        CLEAR     39  39  98 CALM      30.03R FOG
KENANSVILLE    CLEAR     37  37 100 CALM      30.03S FOG
NEW BERN       CLEAR     39  37  92 CALM      30.03S FOG
CHERRY POINT   CLEAR     43  40  89 CALM      30.03R
BEAUFORT       CLEAR     48  46  93 NW5       30.01S
JACKSONVILLE   CLEAR     42  40  92 CALM      30.01F
WILMINGTON     CLEAR     49  46  90 NE3       30.00F
$$




USA.gov is the U.S. government's official web portal to all federal, state and local government web resources and services.